Flag for Laos Weather past 2 weeks in Vientiane, Laos

Now
88 °F

Fog.


Feels Like: 96 °F
Forecast: 84 / 100 °F
Wind: 2 mph from East

Location: Vientiane Airport

Current Time: Jul 2, 2015 at 2:19:18 AM

Latest Report: Jul 1, 2015 at 11:30 PM


Visibility: 2 mi

Pressure: 29.68 "Hg

Humidity: 62%

Dew point: 73 °F

Location of VientianeLocation

Historic Weather in Vientiane — Graph

°F

Vientiane temperature yesterday

Maximum temperature yesterday: 99 °F (at 1:30 PM)
Minimum temperature yesterday: 81 °F (at 6:00 AM)
Average temperature yesterday: 92 °F

Past Weeks' High & Low Weather Summary

 TemperatureHumidityPressure
High99 °F (Jun 30, 3:00 PM)94% (Jun 19, 7:00 AM)29.89 "Hg (Jun 19, 7:00 AM)
Low77 °F (Jun 28, 6:00 AM)39% (Jul 1, 3:00 PM)29.53 "Hg (Jun 22, 3:00 PM)
Average88 °F67%29.67 "Hg
* Reported Jun 17 6:00 AM — Jul 1 11:30 PM, Vientiane, Weather by CustomWeather, © 2015

Note: Actual official high and low records may vary slightly from our data, if they occured in-between our weather recording intervals... More about our weather records

Advertising

Vientiane weather history for previous 24 hours

 ConditionsComfort  
Time TempWeatherWind HumidityBarometerVisibility
11:30 PM
Wed, Jul 1
88 °FFog.2 mph62%29.68 "Hg2 mi
10:30 PM88 °FFog.5 mph62%29.65 "Hg2 mi
10:00 PM90 °FFog.5 mph59%29.65 "Hg2 mi
9:30 PM90 °FFog.2 mph59%29.65 "Hg2 mi
9:00 PM91 °FFog.2 mph56%29.65 "Hg2 mi
8:30 PM91 °FFog.2 mph59%29.62 "Hg2 mi
8:00 PM93 °FFog.2 mph56%29.62 "Hg2 mi
7:30 PM91 °FFog.2 mph52%29.59 "Hg3 mi
7:00 PM95 °FPassing clouds.2 mph47%29.59 "HgN/A
6:30 PM97 °FPassing clouds.2 mph44%29.59 "HgN/A
6:00 PM99 °FPassing clouds.2 mph42%29.59 "HgN/A
5:30 PM97 °FScattered clouds.2 mph44%29.59 "HgN/A
5:00 PM99 °FScattered clouds.2 mph42%29.59 "HgN/A
4:30 PM99 °FPassing clouds.2 mph42%29.59 "HgN/A
4:00 PM99 °FPassing clouds.2 mph42%29.59 "HgN/A
3:30 PM99 °FPassing clouds.2 mph39%29.59 "HgN/A
3:00 PM99 °FPassing clouds.2 mph39%29.62 "HgN/A
2:30 PM99 °FPassing clouds.2 mph42%29.62 "HgN/A
2:00 PM99 °FPassing clouds.2 mph42%29.65 "HgN/A
1:30 PM99 °FPassing clouds.5 mph42%29.65 "HgN/A
1:00 PM97 °FPassing clouds.5 mph44%29.68 "HgN/A
12:00 PM97 °FPassing clouds.12 mph42%29.71 "HgN/A
11:00 AM93 °FPassing clouds.5 mph49%29.74 "HgN/A
10:30 AM93 °FSunny.2 mph53%29.74 "Hg10 mi
10:00 AM91 °FSunny.2 mph56%29.74 "Hg10 mi
9:30 AM90 °FSunny.2 mph55%29.77 "Hg10 mi
9:00 AM88 °FSunny.2 mph59%29.77 "Hg10 mi
8:30 AM86 °FSunny.2 mph62%29.74 "Hg10 mi
8:00 AM84 °FSunny.2 mph66%29.74 "Hg10 mi
7:30 AM81 °FSunny.2 mph79%29.71 "Hg10 mi
7:00 AM81 °FSunny.2 mph79%29.71 "Hg10 mi
6:00 AM81 °FFog.2 mph79%29.71 "Hg3 mi
Weather by CustomWeather, © 2015

See weather overviewHow to use our weather pages